timestamp,surface_pressure_avg,surface_temp_avg,battery_voltage,lat,long
2018-05-10 00:00:00+00:00,238.1331,5.7,13.13,47.84626,-54.09684
2018-05-10 00:10:00+00:00,238.8348,5.69,13.05,47.84626,-54.09684
2018-05-10 00:20:00+00:00,238.2797,5.67,13.13,47.84626,-54.09684
2018-05-10 00:30:00+00:00,235.2415,5.6,13.13,47.84626,-54.09684
2018-05-10 00:40:00+00:00,235.4564,5.6,13.13,47.84626,-54.09684
2018-05-10 00:50:00+00:00,237.4864,5.66,13.13,47.84626,-54.09684
2018-05-10 01:00:00+00:00,238.6497,5.6,13.05,47.84626,-54.09684
2018-05-10 01:10:00+00:00,237.4848,5.5,13.05,47.84626,-54.09684
2018-05-10 01:20:00+00:00,235.6698,5.49,13.05,47.84626,-54.09684
2018-05-10 01:30:00+00:00,236.8348,5.49,13.05,47.84626,-54.09684
2018-05-10 01:40:00+00:00,239.7781,5.5,13.05,47.84626,-54.09684
2018-05-10 01:50:00+00:00,238.4581,5.48,13.13,47.84626,-54.09684
2018-05-10 02:00:00+00:00,236.4098,5.47,13.05,47.84626,-54.09684
2018-05-10 02:10:00+00:00,239.6548,5.44,12.97,47.84626,-54.09684
2018-05-10 02:20:00+00:00,241.3714,5.4,13.05,47.84626,-54.09684
2018-05-10 02:30:00+00:00,236.4064,5.17,13.05,47.84626,-54.09684
2018-05-10 02:40:00+00:00,234.5931,5.0,13.05,47.84626,-54.09684
2018-05-10 02:50:00+00:00,243.0981,4.93,13.05,47.84626,-54.09684
2018-05-10 03:00:00+00:00,246.2147,5.1,13.05,47.84626,-54.09684
2018-05-10 03:10:00+00:00,243.5431,5.0,12.97,47.84626,-54.09684
2018-05-10 03:20:00+00:00,247.0581,5.0,13.05,47.84626,-54.09684
2018-05-10 03:30:00+00:00,253.5664,5.0,13.05,47.84626,-54.09684
2018-05-10 03:40:00+00:00,253.0764,5.06,13.05,47.84626,-54.09684
2018-05-10 03:50:00+00:00,254.0547,5.1,13.05,47.84626,-54.09684
2018-05-10 04:00:00+00:00,259.8381,5.18,12.97,47.84626,-54.09684
2018-05-10 04:10:00+00:00,268.1665,5.2,12.97,47.84626,-54.09684
2018-05-10 04:20:00+00:00,267.6614,5.06,12.97,47.84626,-54.09684
2018-05-10 04:30:00+00:00,270.783,4.7,12.97,47.84626,-54.09684
2018-05-10 04:40:00+00:00,275.9647,4.71,13.05,47.84626,-54.09684
2018-05-10 04:50:00+00:00,283.6947,4.9,13.05,47.84626,-54.09684
2018-05-10 05:00:00+00:00,286.7064,4.7,12.97,47.84626,-54.09684
2018-05-10 05:10:00+00:00,292.2581,4.74,12.89,47.84626,-54.09684
2018-05-10 05:20:00+00:00,295.9446,4.99,12.97,47.84626,-54.09684
2018-05-10 05:30:00+00:00,301.3847,4.8,12.97,47.84626,-54.09684
2018-05-10 05:40:00+00:00,304.1396,4.7,12.97,47.84626,-54.09684
2018-05-10 05:50:00+00:00,306.563,4.71,12.97,47.84626,-54.09684
2018-05-10 06:00:00+00:00,306.0997,4.86,12.97,47.84626,-54.09684
2018-05-10 06:10:00+00:00,313.053,4.8,12.89,47.84626,-54.09684
2018-05-10 06:20:00+00:00,317.498,4.8,12.97,47.84626,-54.09684
2018-05-10 06:30:00+00:00,315.913,4.8,12.97,47.84626,-54.09684
2018-05-10 06:40:00+00:00,318.5046,4.87,12.97,47.84626,-54.09684
2018-05-10 06:50:00+00:00,323.1829,4.89,12.97,47.84626,-54.09684
2018-05-10 07:00:00+00:00,323.1563,4.86,12.97,47.84626,-54.09684
2018-05-10 07:10:00+00:00,320.413,4.8,12.89,47.84626,-54.09684
2018-05-10 07:20:00+00:00,325.153,4.7,12.97,47.84626,-54.09684
2018-05-10 07:30:00+00:00,324.948,4.75,12.97,47.84626,-54.09684
2018-05-10 07:40:00+00:00,318.7747,4.89,12.97,47.84626,-54.09684
2018-05-10 07:50:00+00:00,315.498,4.7,12.97,47.84626,-54.09684
2018-05-10 08:00:00+00:00,318.4297,4.6,12.89,47.84626,-54.09684
2018-05-10 08:10:00+00:00,317.3997,4.45,12.81,47.84626,-54.09684
2018-05-10 08:20:00+00:00,312.868,4.65,12.97,47.84626,-54.09684
2018-05-10 08:30:00+00:00,313.7964,4.6,12.97,47.84626,-54.09684
2018-05-10 08:40:00+00:00,316.9864,4.4,12.97,47.84626,-54.09684
2018-05-10 08:50:00+00:00,313.1813,4.3,13.05,47.84626,-54.09684
2018-05-10 09:00:00+00:00,305.548,4.3,13.05,47.84626,-54.09684
2018-05-10 09:10:00+00:00,308.0996,4.3,13.05,47.84626,-54.09684
2018-05-10 09:20:00+00:00,305.0397,4.3,13.29,47.84626,-54.09684
2018-05-10 09:30:00+00:00,296.7996,4.3,13.44,47.84626,-54.09684
2018-05-10 09:40:00+00:00,290.108,4.3,13.6,47.84626,-54.09684
2018-05-10 09:50:00+00:00,289.1296,4.39,13.92,47.84626,-54.09684
2018-05-10 10:00:00+00:00,287.5914,4.4,14.08,47.84626,-54.09684
2018-05-10 10:10:00+00:00,282.4797,4.39,14.24,47.84626,-54.09684
2018-05-10 10:20:00+00:00,275.6981,4.44,16.07,47.84626,-54.09684
2018-05-10 10:30:00+00:00,272.2398,4.4,16.07,47.84626,-54.09684
2018-05-10 10:40:00+00:00,266.3314,4.4,16.15,47.84626,-54.09684
2018-05-10 10:50:00+00:00,259.2264,4.4,15.99,47.84626,-54.09684
2018-05-10 11:00:00+00:00,251.3597,4.39,14.72,47.84626,-54.09684
2018-05-10 11:10:00+00:00,245.7464,4.39,14.64,47.84626,-54.09684
2018-05-10 11:20:00+00:00,234.4797,4.55,15.83,47.84626,-54.09684
2018-05-10 11:30:00+00:00,227.6564,4.6,15.11,47.84626,-54.09684
2018-05-10 11:40:00+00:00,225.4581,4.5,15.44,47.84626,-54.09684
2018-05-10 11:50:00+00:00,225.0331,4.52,15.27,47.84626,-54.09684
2018-05-10 12:00:00+00:00,224.5197,4.68,14.72,47.84626,-54.09684
2018-05-10 12:10:00+00:00,222.9448,4.6,14.64,47.84626,-54.09684
2018-05-10 12:20:00+00:00,219.5931,4.43,15.35,47.84626,-54.09684
2018-05-10 12:30:00+00:00,217.6847,4.68,14.96,47.84626,-54.09684
2018-05-10 12:40:00+00:00,220.7281,4.64,15.2,47.84626,-54.09684
2018-05-10 12:50:00+00:00,221.6414,4.6,15.11,47.84626,-54.09684
2018-05-10 13:00:00+00:00,216.3431,4.6,14.64,47.84626,-54.09684
2018-05-10 13:10:00+00:00,211.2398,4.78,14.64,47.84626,-54.09684
2018-05-10 13:20:00+00:00,211.9581,4.8,15.2,47.84626,-54.09684
2018-05-10 13:30:00+00:00,214.4248,4.6,14.8,47.84626,-54.09684
2018-05-10 13:40:00+00:00,214.4798,4.5,14.96,47.84626,-54.09684
2018-05-10 13:50:00+00:00,213.1131,4.5,14.88,47.84626,-54.09684
2018-05-10 14:00:00+00:00,211.6398,4.5,14.64,47.84626,-54.09684
2018-05-10 14:10:00+00:00,208.4381,4.5,14.56,47.84626,-54.09684
2018-05-10 14:20:00+00:00,208.0615,4.46,14.8,47.84626,-54.09684
2018-05-10 14:30:00+00:00,210.7547,4.4,14.64,47.84626,-54.09684
2018-05-10 14:40:00+00:00,209.1031,4.4,14.72,47.84626,-54.09684
2018-05-10 14:50:00+00:00,209.1814,4.49,14.64,47.84626,-54.09684
2018-05-10 15:00:00+00:00,216.1481,4.4,14.56,47.84626,-54.09684
2018-05-10 15:10:00+00:00,214.3681,4.4,14.48,47.84626,-54.09684
2018-05-10 15:20:00+00:00,210.1648,4.48,14.64,47.84626,-54.09684
2018-05-10 15:30:00+00:00,214.4798,4.4,14.56,47.84626,-54.09684
2018-05-10 15:40:00+00:00,218.7664,4.33,14.56,47.84626,-54.09684
2018-05-10 15:50:00+00:00,216.7497,4.39,14.56,47.84626,-54.09684
2018-05-10 16:00:00+00:00,217.9681,4.4,14.48,47.84626,-54.09684
2018-05-10 16:10:00+00:00,224.1348,4.3,14.32,47.84626,-54.09684
2018-05-10 16:20:00+00:00,224.8981,4.3,14.48,47.84626,-54.09684
2018-05-10 16:30:00+00:00,225.6398,4.3,14.48,47.84626,-54.09684
2018-05-10 16:40:00+00:00,232.7415,4.3,14.48,47.84626,-54.09684
2018-05-10 16:50:00+00:00,242.2781,4.26,14.4,47.84626,-54.09684
2018-05-10 17:00:00+00:00,245.7248,4.27,14.32,47.84626,-54.09684
2018-05-10 17:10:00+00:00,248.2398,4.29,14.24,47.84626,-54.09684
2018-05-10 17:20:00+00:00,250.4181,4.29,14.32,47.84626,-54.09684
2018-05-10 17:30:00+00:00,255.8647,4.28,14.32,47.84626,-54.09684
2018-05-10 17:40:00+00:00,259.6414,4.26,14.24,47.84626,-54.09684
2018-05-10 17:50:00+00:00,262.7031,4.23,14.24,47.84626,-54.09684
2018-05-10 18:00:00+00:00,265.3447,4.2,14.16,47.84626,-54.09684
2018-05-10 18:10:00+00:00,268.6497,4.2,14.0,47.84626,-54.09684
2018-05-10 18:20:00+00:00,271.3914,4.18,14.08,47.84626,-54.09684
2018-05-10 18:30:00+00:00,274.2064,4.19,14.0,47.84626,-54.09684
2018-05-10 18:40:00+00:00,278.4414,4.16,14.08,47.84626,-54.09684
2018-05-10 18:50:00+00:00,284.0181,4.1,14.08,47.84626,-54.09684
2018-05-10 19:00:00+00:00,288.5897,4.1,14.0,47.84626,-54.09684
2018-05-10 19:10:00+00:00,291.5563,4.1,13.92,47.84626,-54.09684
2018-05-10 19:20:00+00:00,292.7413,4.1,14.0,47.84626,-54.09684
2018-05-10 19:30:00+00:00,296.848,4.14,14.0,47.84626,-54.09684
2018-05-10 19:40:00+00:00,299.3447,4.23,14.0,47.84626,-54.09684
2018-05-10 19:50:00+00:00,295.063,4.31,14.0,47.84626,-54.09684
2018-05-10 20:00:00+00:00,292.8413,4.45,13.92,47.84626,-54.09684
2018-05-10 20:10:00+00:00,296.0214,4.5,13.84,47.84626,-54.09684
2018-05-10 20:20:00+00:00,297.5397,4.6,13.92,47.84626,-54.09684
2018-05-10 20:30:00+00:00,295.2197,4.7,13.92,47.84626,-54.09684
2018-05-10 20:40:00+00:00,294.5747,4.77,13.92,47.84626,-54.09684
2018-05-10 20:50:00+00:00,294.6346,4.79,13.92,47.84626,-54.09684
2018-05-10 21:00:00+00:00,294.248,4.8,13.84,47.84626,-54.09684
2018-05-10 21:10:00+00:00,288.9247,4.8,13.76,47.84626,-54.09684
2018-05-10 21:20:00+00:00,283.7397,4.8,13.84,47.84626,-54.09684
2018-05-10 21:30:00+00:00,282.5814,4.79,13.76,47.84626,-54.09684
2018-05-10 21:40:00+00:00,278.7097,4.78,13.76,47.84626,-54.09684
2018-05-10 21:50:00+00:00,269.1864,4.74,13.76,47.84626,-54.09684
2018-05-10 22:00:00+00:00,264.3131,4.77,13.68,47.84626,-54.09684
2018-05-10 22:10:00+00:00,265.7614,4.78,13.53,47.84626,-54.09684
2018-05-10 22:20:00+00:00,261.5648,4.79,13.53,47.84626,-54.09684
2018-05-10 22:30:00+00:00,256.8381,4.8,13.53,47.84626,-54.09684
2018-05-10 22:40:00+00:00,254.0564,4.8,13.44,47.84626,-54.09684
2018-05-10 22:50:00+00:00,251.7564,4.8,13.44,47.84626,-54.09684
2018-05-10 23:00:00+00:00,246.0214,4.89,13.37,47.84626,-54.09684
2018-05-10 23:10:00+00:00,244.6364,4.9,13.29,47.84626,-54.09684
2018-05-10 23:20:00+00:00,243.3047,4.9,13.29,47.84626,-54.09684
2018-05-10 23:30:00+00:00,236.1964,4.9,13.21,47.84626,-54.09684
2018-05-10 23:40:00+00:00,229.5731,4.9,13.21,47.84626,-54.09684
2018-05-10 23:50:00+00:00,225.4898,4.9,13.21,47.84626,-54.09684
